Location: Unspecified
(49.2170°N, 0.0000°E)
Time: 16:29:01
(UTC+00:00)

Transit 2A - Pass Details

Date: 17 June 2019
Orbit: 594 x 964 km, 66.7° (Epoch: 19 July)

Event Time Altitude Azimuth Distance (km) Brightness Sun altitude
Rises 05:01:22 0° 286° (WNW) 3,648 9.1 8.4°
Reaches altitude 10° 05:05:02 10° 306° (NW) 2,680 8.6 9.0°
Maximum altitude 05:08:57 17° 345° (NNW) 2,184 8.6 9.5°
Drops below altitude 10° 05:12:45 10° 24° (NNE) 2,580 9.6 10.1°
Sets 05:16:11 0° 45° (NE) 3,454 10.8 10.6°
